Zurück zum Katalog

COSMOS 1818 COOLANT

LostLEO
NORAD 36946·DEBRIS·🇷🇺 Russia

Gestartet Feb 1, 1987 von Baikonur Cosmodrome

Loading…

Nächste Überflüge (nächste 24 Stunden)

TLE

VeraltetSource: Space-Track

Epoche: Aug 31, 2022, 08:06 UTC

1 36946U 87011AA  22243.33795074  .00000238  00000-0  12039-3 0  9997
2 36946  65.0170 142.3181 0016124 254.7430 105.1874 14.34190099679589

Verfolge COSMOS 1818 COOLANT in Echtzeit mit AllMySat

Download on the App Store